Tracking 18852 objects as of 23-Nov-2017
HD Live streaming from Space Station
objects crossing your sky now

FENGYUN 1C DEB

Track FENGYUN 1C DEB now!
10-day predictions


NORAD ID: 30400
Int'l Code: 1999-025ADP
Perigee: 735.7 km
Apogee: 1,151.8 km
Inclination: 99.2 °
Period: 103.8 minutes
Semi major axis: 7314 km
RCS: 0.0229 m2 (small)
Launch date: May 10, 1999
Source: People's Republic of China (PRC)
Launch site: Taiyaun Space Center, China (TSC)

Note: This is SATELLITE DEBRIS
aabbcc
Your satellite tracking list
Your tracking list is empty




NASA's NSSDC Master Catalog

Two Line Element Set (TLE):
1 30400U 99025ADP 17326.76747257  .00001880  00000-0  11765-2 0  9995
2 30400  99.1613 239.7875 0284424  65.5933 358.0909 13.87714428545681
Source of the keplerian elements: AFSPC